Regional Weather Roundup
Issued by NWS

Home | Current Version | Previous Version | Graphics & Text | Print | Product List | Glossary Off
Versions: 1 2 3 4 5 6 7 8 9 10 11 12 13 14 15 16 17 18 19 20 21 22 23 24 25 26 27 28 29 30 31 32 33 34 35 36 37 38 39 40 41 42 43 44 45 46 47 48 49 50

021
ASUS43 KDMX 190401
RWRIA

WEATHER ROUNDUP FOR IOWA
NATIONAL WEATHER SERVICE DES MOINES IA
1000 PM CST SAT NOV 18 2017

NOTE: "FAIR" INDICATES FEW OR NO CLOUDS BELOW 12,000 FEET WITH NO
SIGNIFICANT WEATHER AND/OR OBSTRUCTIONS TO VISIBILITY.

* - THESE STATIONS ARE NOT NWS STATIONS...THUS NOT UNDER NWS
QUALITY CONTROL.  THEY ALSO DO NOT REPORT WEATHER SUCH
AS PRECIPITATION OR FOG.

IAZ001>003-012>014-020>022-031>034-043>046-190500-
   NORTHWEST IOWA

CITY           SKY/WX    TMP DP  RH WIND       PRES   REMARKS
CARROLL *      CLEAR     30  19  64 NW16      30.12R WCI  19
DENISON *      CLEAR     28  19  69 NW10G16   30.16R WCI  19
LE MARS *      CLEAR     28  18  64 NW9       30.15S WCI  20
ORANGE CITY *  CLEAR     27  19  74 NW13      30.12R WCI  16
SHELDON *      CLEAR     25  16  68 NW12      30.10R WCI  14
SIOUX CITY     CLEAR     26  20  77 W9        30.18R WCI  17
SPENCER        CLEAR     22  16  78 NW10      30.10R WCI  11
STORM LAKE *   CLEAR     27  18  69 NW15      30.10R WCI  15
$$

IAZ055>058-069>071-079>083-090>094-190500-
   SOUTHWEST IOWA

CITY           SKY/WX    TMP DP  RH WIND       PRES   REMARKS
ATLANTIC *     CLEAR     30  21  69 NW8       30.15S WCI  23
AUDUBON *      CLEAR     28  21  74 W7        30.13S WCI  21
CLARINDA *     CLEAR     34  23  64 NW9       30.20R WCI  26
COUNCIL BLFS * CLEAR     30  23  74 NW7       30.17F WCI  23
CRESTON *      CLEAR     30  23  74 NW15      30.14S WCI  19
HARLAN  *      CLEAR     27  21  80 W8        30.19R WCI  18
LAMONI         CLEAR     33  23  66 NW18      30.13R WCI  22
RED OAK *      CLEAR     30  23  74 NW7       30.17F WCI  23
SHENANDOAH *   CLEAR     32  25  74 CALM      30.19F
$$

IAZ047>049-059>061-072>074-084-190500-
   CENTRAL IOWA

CITY           SKY/WX    TMP DP  RH WIND       PRES   REMARKS
AMES           CLEAR     28  22  78 NW7       30.08S WCI  21
ANKENY *       CLEAR     32  18  55 NW14G21   30.10S WCI  22
BOONE *        CLEAR     28  19  69 NW12G17   30.07F WCI  18
CHARITON *     CLEAR     32  21  64 NW15G24   30.09S WCI  22
DES MOINES     CLEAR     32  19  58 NW14      30.10R WCI  22
GRINNELL*      CLEAR     28  21  73 NW17G28   30.07R WCI  16
KNOXVILLE *    CLEAR     32  18  55 NW16G26   30.08R WCI  21
MARSHALLTOWN   CLEAR     28  18  66 NW22      30.05R WCI  14
NEWTON *       CLEAR     28  21  74 NW15G23   30.08R WCI  17
PELLA *        CLEAR     30  23  74 NW10      30.10R WCI  21
PERRY *          N/A     29  22  75 NW13      30.11S WCI  19
$$

IAZ004>006-015-016-023>025-035-036-190500-
   NORTH CENTRAL IOWA

CITY           SKY/WX    TMP DP  RH WIND       PRES   REMARKS
ALGONA *       CLEAR     25  18  74 NW9       30.08R WCI  15
CLARION *      CLEAR     25  19  80 NW17      30.08R WCI  11
ESTHERVILLE    CLEAR     21  15  78 NW8       30.09R WCI  11
FORT DODGE *   CLEAR     25  19  78 NW6       30.10R WCI  18
MASON CITY     CLEAR     23  14  68 NW20G26   30.05R WCI   8
FOREST CITY *    N/A     27  18  69 NW16G23   30.06R WCI  14
WEBSTER CITY * CLEAR     27  19  74 NW13      30.07R WCI  16
IOWA FALLS *     N/A     27  19  72 NW16      30.05F WCI  15
$$

IAZ007>011-017>019-026>030-037>042-050>054-066-190500-
   NORTHEAST IOWA

CITY           SKY/WX    TMP DP  RH WIND       PRES   REMARKS
CEDAR RAPIDS   CLEAR     28  20  71 NW18G30   29.99R WCI  15
CHARLES CITY * CLEAR     25  16  68 NW16G29   30.01R WCI  12
CLINTON *      CLOUDY    32  25  75 NW21G29   29.93R WCI  20
DECORAH *      MOCLDY    27  19  74 NW14G20   29.94R WCI  15
DUBUQUE        MOCLDY    30  21  69 NW15      29.92R WCI  19
MONTICELLO *   PTCLDY    30  23  74 NW16G26   29.96R WCI  19
OELWEIN *      CLEAR     27  21  80 NW24G30   29.98S WCI  12
WATERLOO       CLEAR     26  17  68 NW15      30.02R WCI  14
$$

IAZ064-065-067-068-078-190500-
   EAST CENTRAL IOWA

CITY           SKY/WX    TMP DP  RH WIND       PRES   REMARKS
DAVENPORT      CLOUDY    32  25  75 NW17G29   29.97R WCI  21
IOWA CITY      CLEAR     32  20  61 NW20G29   30.03R WCI  20
MT. PLEASANT * CLEAR     32  21  65 NW18G29   30.03R WCI  20
MUSCATINE *    CLEAR     32  23  69 NW18G30   30.01R WCI  20
QUAD CITIES    CLOUDY    35  24  64 NW16G26   29.96R WCI  25
$$

IAZ062-063-075>077-085>089-095>099-190500-
   SOUTHEAST IOWA

CITY           SKY/WX    TMP DP  RH WIND       PRES   REMARKS
BURLINGTON     CLEAR     32  25  75 NW17G24   30.00R WCI  21
FAIRFIELD *    CLEAR     32  19  59 NW18G26   30.04R WCI  20
FORT MADISON * CLEAR     32  25  74 NW22G29   30.03R WCI  19
KEOKUK *       CLEAR     34  23  64 NW17G30   30.03R WCI  23
OSKALOOSA *      N/A     30  22  72 NW17      30.07R WCI  18
OTTUMWA        CLEAR     31  20  63 NW20G29   30.07R WCI  19
WASHINGTON *   CLEAR     32  21  64 NW22G32   30.04R WCI  19
$$

ABBREVIATIONS USED IN REMARKS
   TC - TEMPERATURES IN CELSIUS
  WCI - WIND CHILL INDEX
   HX - HEAT INDEX
  VSB - VISIBILITY
$$





USA.gov is the U.S. government's official web portal to all federal, state and local government web resources and services.